id market_id remote_code brand name is_lost date_modified
12224 71 8229250 Fortessa Schott Zwiesel Convention Set of 6 Highball Glasses 0 2026-06-11 14:25:08.109959
12223 71 8233724 VELLAPAIS Hardin Monk Strap Loafer 0 2026-06-11 14:25:08.154663
12231 71 8389245 Danecraft Cubic Zirconia Butterfly Pendant Necklace & Stud Earrings Set 0 2026-06-11 14:25:08.192661
12230 71 6974321 English Factory Grid Pattern Puff Sleeve Organza Top 0 2026-06-11 14:25:08.248282
12512 37 B0F8NB23PR Speedo Speedo Men's Swim Trunk Short Length Redondo Printed 0 2026-06-11 14:26:14.379286
12520 76 8368195 FANATICS Men's Fanatics Charcoal New Jersey Devils Fairweather Adjustable Hat 0 2026-06-11 14:26:14.863610
12665 37 B00B056SM8 Vollrath Stainless Measuring Spoon 1 Tbls. 14" handle 0 2026-06-11 14:26:42.488219
13048 37 B09Y23LXH6 Kappa Kappa 222 Banda Hurtado 4 0 2026-06-11 14:27:57.162877
13171 20 4854143 Picnic Time Picnic Time Dallas Cowboys Insulated Wine Cooler Bag 0 2026-06-11 14:28:35.565895
13170 20 5493341 Learning Resources Learning Resources Primary Science Jumbo Magnifiers, Set of 12 in Display (without stand) 0 2026-06-11 14:28:35.569036
13306 76 8862490 Róhe Twisted Crushed Cotton Blend Midi Skirt 0 2026-06-11 14:28:44.994792
13699 16 0400022205962 Kobi Halperin Kael Paisley Glade Shorts 0 2026-06-11 14:29:57.680256
13929 20 7449405 Starter Men's Starter Purple Sacramento Kings Captain Oxford Full-Zip Jacket 0 2026-06-11 14:30:36.334773
14026 37 B0D83P75V3 Simple Flavor Simple Flavor Women's Wide Leg Jeans High Waisted Stretch Pull-on Baggy Denim Pants with Pockets 0 2026-06-11 14:30:57.541968
14154 20 8091269 Seoria Pleated Vacation V-neck Short Sleeved Ruffled Women's Skirt 0 2026-06-11 14:31:28.373423
14463 20 6506676 Lusso Women's Lusso Blue Los Angeles Dodgers Trixie Cheetah Romper 0 2026-06-11 14:32:35.900846
14465 20 6360468 Licensed Character Big & Tall Yellowstone My Tomorrows Graphic Tee 0 2026-06-11 14:32:35.904953
14471 37 B0CHLFVN7R Coach COACH Product Care 0 2026-06-11 14:32:36.591435
14477 4 15494782 Barnes & Noble Dinosaurs: 400 Words for Budding Paleontologists by Ellen-Therese Lamm 0 2026-06-11 14:32:36.840308
14687 37 B004O7FEH4 Liquitex Liquitex Basic White Synthetic Long Hardwood Handle Value Brush Set, Assorted Size, Set of 96 0 2026-06-11 14:33:21.885063
14696 37 B0DLJ5QMQC PAIGE PAIGE Women's Dekalb Dress 0 2026-06-11 14:33:24.653001
14834 20 8355154 New Era Men's New Era Royal Los Angeles Dodgers 2026 Batting Practice 59FIFTY Fitted Hat 0 2026-06-11 14:33:52.659415
15666 37 B0BJ2M4KFN Chuancheng Diffuser & Adaptor Attachment Set for Dyson Airwrap, for Airwrap Styler Into A Hair Dryer Combination 0 2026-06-11 14:36:04.806109
15751 20 8354181 New Era Youth New Era Royal Los Angeles Dodgers 9FIFTY Trucker Snapback Hat 0 2026-06-11 14:36:29.205122
15953 76 8965423 Joe Browns Mockneck Rib Sweater 0 2026-06-11 14:37:13.361390
15999 20 8359439 Sol Living Pearled Decor Raglan Sleeve Plus Size Sweater 0 2026-06-11 14:37:27.560924
16144 37 B093C52WBP AWS/American Made AWS/American Made Men's Diabetic Ankle Socks 3 Pairs Seamless Toe Non-Binding Top Breathable Cotton 0 2026-06-11 14:37:59.425465
16346 37 B085M3QM5X VESSEL VESSEL MEGADORA Screwdriver Set 6pcs. 9006PB (Paper Box) 0 2026-06-11 14:38:44.160358
16398 37 B08HR52C2H IQ LEGO Star Wars Keylight - Darth Vader Black 0 2026-06-11 14:38:48.720604
17103 76 8942725 Tiffany & Co. 56mm Polarized Cat Eye Sunglasses 0 2026-06-11 14:39:34.560480
17739 4 14847039 New Era Men's Cardinal Washington Nationals Logo White 59FIFTY Fitted Hat 0 2026-06-11 14:40:14.211883
18552 37 B0FQLX1QX3 Connelly Connelly Wakeboard Bindings, Empire S/M - (Size 5-8) 0 2026-06-11 14:41:08.035787
19257 37 B09C5BTYSV Honbay Honbay 16PCS Unfinished Wood Cutouts Wooden Dinosaur Animal Cutouts Dinosaur Paint Crafts for Home Decor Ornament DIY Craft Art Project (8 Style) 0 2026-06-11 14:41:55.025773
19918 20 4799559 Unbranded Women's '47 Red St. Louis Cardinals Miata Clean-Up Adjustable Hat 0 2026-06-11 14:42:38.011608
21421 37 B0BMFKJJRD Ezona Heated Eye Mask, Warm Eye Compress Mask, USB Electric Eye Heating Pad with Temperature & Timer Control, Dry Eye Mask for Dry Eyes Blepharitis Sinus Migraine Stye MGD Puffiness Gray 0 2026-06-11 14:44:09.162074
21761 37 B0GN5N8FYQ Marvel Spidey and His Amazing Friends Balloon 13 Pack - Bundle of 3 Spiderman Foil Balloons, Birthday Balloon, Stickers, More | Decorations for Parties 0 2026-06-11 14:44:28.830093
21837 20 3949259 Disney Disney Princess Men's Motivational Quotes Symbol Graphic Tee 0 2026-06-11 14:44:35.603207
22171 37 B0F822WLN1 Paw Patrol Paw Patrol Backpack Set - Bundle with 16” Bookbag Featuring Rubble, Marshall, Chase Plus Water Bottle, Tattoos, More | Paw Patrol School Supplies for Kids 0 2026-06-11 14:44:55.686250
22314 37 B0CD1JJBBN MYMULIKE 60 Pieces Corn Cushions, Soft Latex Foam Self Adhesive Callus Pads Corn Pad Anti Friction Reduce Foot and Heel Pain, 4 Models (60 Pieces) 0 2026-06-11 14:45:06.860159
22845 20 6458824 Tonka Big & Tall Tonka Grid Graphic Tee 0 2026-06-11 14:45:47.419770
23444 76 8954278 Madewell Sand Dollar Necklace 3-Piece Set 0 2026-06-11 14:46:37.743561
23445 76 8935688 Loeffler Randall Nico Slide Sandal 0 2026-06-11 14:46:37.773800
23450 76 8944295 New Era Men's New Era Orange Baltimore Orioles 2026 Batting Practice Alternate Apex 9FORTY Adjustable Hat 0 2026-06-11 14:46:38.026007
23451 76 5766060 McQueen Alexander McQueen Harness Stretch Poplin Men's Button-Up Shirt 0 2026-06-11 14:46:38.031961
23449 76 8983190 CRESCENT Striped Weave Bag 0 2026-06-11 14:46:38.034014
23446 76 8773428 Haus of Brilliance Silver Diamond Accent "I LOVE YOU MOM" Heart Pendant Necklace 0 2026-06-11 14:46:38.037904
23459 76 9060304 Conscious Ink Self Love Manifestation Kit 0 2026-06-11 14:46:38.058743
23457 76 9071028 Brooklyn Brigade Macon Windowpane Texture Blazer 0 2026-06-11 14:46:38.062822
23461 76 8807691 Museum of Peace & Quiet Signature Cotton Graphic T-Shirt 0 2026-06-11 14:46:38.064366
23454 76 8944372 FANATICS Men's Fanatics Black Los Angeles Lakers Big & Tall Pop Full-Button Jersey 0 2026-06-11 14:46:38.074118